Iron Mountain, MI

3:04 PM CST on November 23, 2017 (GMT -0600)
Ford

Weather History for KIMT - April, 2013

Change the Weather History Date:

Wednesday, April 3, 2013

  Actual Average Record
Temperature  
Mean Temperature 24 °F -  
Max Temperature 39 °F 45 °F 72 °F (1963)
Min Temperature 10 °F 23 °F 0 °F (1954)
Degree Days  
Heating Degree Days 40    
Moisture  
Dew Point 8 °F    
Average Humidity 48    
Maximum Humidity 73    
Minimum Humidity 24    
Precipitation  
Precipitation 0.00 in - - ()
Sea Level Pressure  
Sea Level Pressure 30.33 in    
Wind  
Wind Speed 4 mph (South)    
Max Wind Speed 14 mph    
Max Gust Speed 17 mph    
Visibility 10 miles    
Events      
Averages and records for this station are not official NWS values.
T = Trace of Precipitation, MM = Missing Value Source: NWS Daily Summary

Daily Weather History Graph

Daily Weather History Graph

Search for Another Location

Airport or City:

Trip Planner

Search our weather history database for the weather conditions in past years. The results will help you decide how hot, cold, wet, or windy it might be!

Date:

Astronomy

Apr. 03, 2013 Rise Set
Actual Time 6:28 AM CDT 7:23 PM CDT
Civil Twilight 5:57 AM CDT 7:54 PM CDT
Nautical Twilight 5:21 AM CDT 8:30 PM CDT
Astronomical Twilight 4:43 AM CDT 9:08 PM CDT
Moon 2:28 AM CDT (4/3) 12:16 PM CDT (4/3)
Length of Visible Light 13h 56m
Length of Day
12h 55m
Last Quarter, 44% of the Moon is Illuminated
Apr 3
Last Quarter
Apr 10
New
Apr 18
First Quarter
Apr 25
Full
May 2
Last Quarter

Hourly Weather History & Observations

Time (CDT) Temp. Windchill Dew Point Humidity Pressure Visibility Wind Dir Wind Speed Gust Speed Precip Events Conditions
12:54 AM 16.0 °F 10.4 °F 5.0 °F 62% 30.32 in 10.0 mi NNW 3.5 mph - N/A   Clear
1:54 AM 15.1 °F - 3.9 °F 61% 30.33 in 10.0 mi Calm Calm - N/A   Clear
2:54 AM 14.0 °F - 3.9 °F 64% 30.34 in 10.0 mi Calm Calm - N/A   Clear
3:54 AM 12.9 °F 6.9 °F 3.9 °F 67% 30.36 in 10.0 mi NNW 3.5 mph - N/A   Clear
4:54 AM 14.0 °F - 5.0 °F 67% 30.37 in 10.0 mi Calm Calm - N/A   Clear
5:54 AM 10.9 °F - 3.0 °F 70% 30.39 in 10.0 mi Calm Calm - N/A   Clear
6:54 AM 10.9 °F - 3.9 °F 73% 30.41 in 10.0 mi Calm Calm - N/A   Clear
7:54 AM 16.0 °F - 5.0 °F 62% 30.42 in 10.0 mi Calm Calm - N/A   Clear
8:54 AM 23.0 °F - 7.0 °F 50% 30.43 in 10.0 mi Calm Calm - N/A   Clear
9:54 AM 28.0 °F - 7.0 °F 41% 30.44 in 10.0 mi Calm Calm - N/A   Clear
10:54 AM 30.0 °F - 6.1 °F 36% 30.45 in 10.0 mi Calm Calm - N/A   Clear
11:54 AM 30.9 °F 27.5 °F 8.1 °F 38% 30.44 in 10.0 mi SSW 3.5 mph - N/A   Clear
12:54 PM 34.0 °F 27.2 °F 9.0 °F 35% 30.41 in 10.0 mi SSW 8.1 mph - N/A   Clear
1:54 PM 35.1 °F 28.6 °F 8.1 °F 33% 30.39 in 10.0 mi South 8.1 mph - N/A   Clear
2:54 PM 37.0 °F 30.4 °F 7.0 °F 29% 30.35 in 10.0 mi South 9.2 mph - N/A   Clear
3:54 PM 37.9 °F 35.5 °F 3.9 °F 24% 30.30 in 10.0 mi SSW 3.5 mph - N/A   Clear
4:54 PM 39.0 °F 32.8 °F 10.0 °F 30% 30.29 in 10.0 mi SSW 9.2 mph 17.3 mph N/A   Clear
5:54 PM 39.0 °F 31.8 °F 10.0 °F 30% 30.26 in 10.0 mi South 11.5 mph - N/A   Clear
6:54 PM 36.0 °F 27.1 °F 14.0 °F 41% 30.26 in 10.0 mi South 13.8 mph - N/A   Clear
7:54 PM 33.1 °F 24.9 °F 12.9 °F 43% 30.24 in 10.0 mi South 10.4 mph - N/A   Clear
8:54 PM 32.0 °F 24.8 °F 14.0 °F 48% 30.23 in 10.0 mi South 8.1 mph - N/A   Clear
9:54 PM 30.0 °F 24.1 °F 12.9 °F 49% 30.21 in 10.0 mi SSE 5.8 mph - N/A   Clear
10:54 PM 30.0 °F 21.1 °F 14.0 °F 51% 30.18 in 10.0 mi South 10.4 mph - N/A   Clear
11:54 PM 30.0 °F 22.4 °F 15.1 °F 54% 30.14 in 10.0 mi South 8.1 mph - N/A   Clear